Location: Angwan Shehu
(11.2514°N, 7.4613°E)
Time: 01:15:35
(UTC+00:00)

Tiros 1 - Pass Details

Date: 21 April 2021
Orbit: 630 x 664 km, 48.4° (Epoch: 06 May)

Event Time Altitude Azimuth Distance (km) Brightness Sun altitude
Rises 04:59:01 0° 197° (SSW) 2,968 10.3 -4.8°
Reaches altitude 10° 05:01:41 10° 184° (S) 2,051 9.6 -4.2°
Maximum altitude 05:05:36 26° 128° (SE) 1,286 9.2 -3.3°
Drops below altitude 10° 05:09:28 10° 72° (ENE) 2,033 11.8 -2.3°
Sets 05:12:05 0° 59° (ENE) 2,936 12.3 -1.7°
